This demonstration page uses our WeatherBlox Daily Observations layout. Learn more.

Left ArrowRight Arrow

41.86663, -103.66717

Hourly Observations for January 23, 2016

Temp ( °F °C ) Dew Point ( °F °C ) Humidity (%) Winds ( mph kmh ) Pressure ( in mb ) Visibility ( mi km ) Precip ( " mm )
12:53 am 00:53 Clear 24 -4.4 22 -5.6 91 91 N 3 6 30.06 1018 10 16 N/A
1:53 am 01:53 Clear 24 -4.4 20 -6.7 84 84 N 3 6 30.03 1017 9 14 N/A
2:53 am 02:53 Clear 25 -3.9 21 -6.1 85 85 NNE 5 7 30.02 1017 10 16 N/A
3:53 am 03:53 Clear 27 -2.8 22 -5.6 81 81 N N/A 29.99 1016 10 16 N/A
4:53 am 04:53 Clear 33 0.6 23 -5 66 66 NW 7 11 29.98 1015 10 16 N/A
5:53 am 05:53 Clear 31 -0.6 23 -5 72 72 NW 8 13 29.99 1016 10 16 N/A
6:53 am 06:53 Clear 39 3.9 22 -5.6 50 50 WNW 15 24 29.98 1015 10 16 N/A
7:53 am 07:53 Sunny 40 4.4 22 -5.6 49 49 WNW 14 22 29.97 1015 10 16 N/A
8:53 am 08:53 Sunny 40 4.4 24 -4.4 53 53 NNW 7 11 29.98 1015 10 16 N/A
9:53 am 09:53 Sunny 44 6.7 23 -5 43 43 WNW 13 20 29.98 1015 10 16 N/A
10:53 am 10:53 Sunny 48 8.9 23 -5 37 37 NW 9 15 29.95 1014 10 16 N/A
11:53 am 11:53 Sunny 52 11.1 26 -3.3 37 37 N 3 6 29.92 1013 10 16 N/A
12:53 pm 12:53 Sunny 55 12.8 24 -4.4 30 30 N N/A 29.89 1012 10 16 N/A
1:53 pm 13:53 Sunny 53 11.7 25 -3.9 34 34 N N/A 29.87 1012 10 16 N/A
2:53 pm 14:53 Sunny 46 7.8 32 undefined 58 58 E 7 11 29.89 1012 10 16 N/A
3:53 pm 15:53 Sunny 42 5.6 31 -0.6 65 65 ESE 5 7 29.90 1012 10 16 N/A
4:53 pm 16:53 Sunny 38 3.3 29 -1.7 70 70 E 6 9 29.89 1012 10 16 N/A
5:53 pm 17:53 Clear 36 2.2 27 -2.8 70 70 E 8 13 29.90 1013 10 16 N/A
6:53 pm 18:53 Clear 33 0.6 27 -2.8 78 78 E 8 13 29.88 1012 10 16 N/A
7:53 pm 19:53 Clear 34 1.1 26 -3.3 73 73 N N/A 29.87 1012 10 16 N/A
8:53 pm 20:53 Clear 31 -0.6 26 -3.3 82 82 E 7 11 29.87 1011 10 16 N/A
9:53 pm 21:53 Clear 32 undefined 25 -3.9 75 75 N N/A 29.84 1010 10 16 N/A
10:53 pm 22:53 Clear 29 -1.7 23 -5 78 78 N N/A 29.83 1010 10 16 N/A
11:53 pm 23:53 Clear 29 -1.7 23 -5 78 78 ESE 3 6 29.80 1009 10 16 N/A

Powered by AerisWeather